Location: Unspecified
(34.1750°S, 150.8048°E)
Time: 10:51:35
(UTC+10:00)

Tiangong - Pass Details

Date: 27 April 2024
Orbit: 372 x 375 km, 41.5° (Epoch: 20 May)

Event Time Altitude Azimuth Distance (km) Brightness Sun altitude
Exits shadow 04:45:18 23° 157° (SSE) 882 -0.2 -21.9°
Drops below altitude 10° 04:47:00 10° 131° (SE) 1,408 1.3 -21.6°
Sets 04:49:15 0° 119° (ESE) 2,267 2.7 -21.1°
